Location: Prairie Dale
(45.6972°N, 104.5033°W)
Time: 13:21:59
(UTC+00:00)

DX 1 - Pass Details

Date: 02 July 2022
Orbit: 616 x 630 km, 98.4° (Epoch: 18 August)

Event Time Altitude Azimuth Distance (km) Brightness Sun altitude
Rises 03:28:55 0° 23° (NNE) 2,931 ? -6.0°
Reaches altitude 10° 03:31:22 10° 35° (NE) 2,017 ? -6.3°
Maximum altitude 03:35:13 29° 96° (E) 1,148 ? -6.8°
Drops below altitude 10° 03:39:01 10° 157° (SSE) 1,996 ? -7.3°
Enters shadow 03:39:59 - 163° (SSE) 2,346 ? -7.4°
